Time,TemperatureF,DewpointF,PressureIn,WindDirection,WindDirectionDegrees,WindSpeedMPH,WindSpeedGustMPH,Humidity,HourlyPrecipIn,Conditions,Clouds,dailyrainin,SoftwareType,DateUTC
2016-02-14 00:04:00,57.0,-99.9,30.24,NNE,28,9.0,11.0,-999,-99.99,,,-99.99,,2016-02-14 05:04:00,
2016-02-14 00:14:00,57.0,-99.9,30.24,NE,36,10.0,13.0,-999,-99.99,,,-99.99,,2016-02-14 05:14:00,
2016-02-14 00:37:00,57.0,-99.9,30.24,NE,48,10.0,14.0,-999,-99.99,,,-99.99,,2016-02-14 05:37:00,
2016-02-14 00:47:00,57.0,-99.9,30.24,NE,48,10.0,14.0,-999,-99.99,,,-99.99,,2016-02-14 05:47:00,
2016-02-14 01:05:00,56.0,-99.9,30.24,NE,48,11.0,14.0,-999,-99.99,,,-99.99,,2016-02-14 06:05:00,
2016-02-14 01:14:00,57.0,-99.9,30.24,NE,39,9.0,13.0,-999,-99.99,,,-99.99,,2016-02-14 06:14:00,
2016-02-14 01:35:00,56.0,-99.9,30.22,NE,37,10.0,13.0,-999,-99.99,,,-99.99,,2016-02-14 06:35:00,
2016-02-14 01:44:00,55.0,-99.9,30.22,NE,41,11.0,16.0,-999,-99.99,,,-99.99,,2016-02-14 06:44:00,
2016-02-14 01:55:00,55.0,-99.9,30.22,NE,34,11.0,16.0,-999,-99.99,,,-99.99,,2016-02-14 06:55:00,
2016-02-14 02:04:00,55.0,-99.9,30.22,NNE,33,12.0,15.0,-999,-99.99,,,-99.99,,2016-02-14 07:04:00,
2016-02-14 02:14:00,55.0,-99.9,30.22,NNE,31,11.0,14.0,-999,-99.99,,,-99.99,,2016-02-14 07:14:00,
2016-02-14 02:34:00,55.0,-99.9,30.22,NE,36,12.0,16.0,-999,-99.99,,,-99.99,,2016-02-14 07:34:00,
2016-02-14 02:55:00,55.0,-99.9,30.22,NE,37,12.0,-999.0,-999,-99.99,,,-99.99,,2016-02-14 07:55:00,
2016-02-14 03:04:00,55.0,-99.9,30.20,NE,45,12.0,15.0,-999,-99.99,,,-99.99,,2016-02-14 08:04:00,
2016-02-14 03:14:00,54.0,-99.9,30.20,NE,50,11.0,14.0,-999,-99.99,,,-99.99,,2016-02-14 08:14:00,
2016-02-14 03:24:00,55.0,-99.9,30.20,NE,47,10.0,14.0,-999,-99.99,,,-99.99,,2016-02-14 08:24:00,
2016-02-14 03:34:00,54.0,-99.9,30.19,NE,44,10.0,14.0,-999,-99.99,,,-99.99,,2016-02-14 08:34:00,
2016-02-14 04:03:00,54.0,-99.9,30.19,NE,44,9.0,13.0,-999,-99.99,,,-99.99,,2016-02-14 09:03:00,
2016-02-14 04:13:00,54.0,-99.9,30.18,NE,42,11.0,15.0,-999,-99.99,,,-99.99,,2016-02-14 09:13:00,
2016-02-14 04:24:00,54.0,-99.9,30.18,NE,40,11.0,13.0,-999,-99.99,,,-99.99,,2016-02-14 09:24:00,
2016-02-14 04:37:00,53.0,-99.9,30.19,NE,51,10.0,13.0,-999,-99.99,,,-99.99,,2016-02-14 09:37:00,
2016-02-14 04:44:00,53.0,-99.9,30.19,NE,38,11.0,13.0,-999,-99.99,,,-99.99,,2016-02-14 09:44:00,
2016-02-14 04:54:00,53.0,-99.9,30.19,NNE,28,10.0,13.0,-999,-99.99,,,-99.99,,2016-02-14 09:54:00,
2016-02-14 05:04:00,53.0,-99.9,30.19,NNE,23,10.0,11.0,-999,-99.99,,,-99.99,,2016-02-14 10:04:00,
2016-02-14 05:13:00,53.0,-99.9,30.19,NNE,26,10.0,13.0,-999,-99.99,,,-99.99,,2016-02-14 10:13:00,
2016-02-14 05:37:00,53.0,-99.9,30.19,NNE,26,8.0,11.0,-999,-99.99,,,-99.99,,2016-02-14 10:37:00,
2016-02-14 05:54:00,52.0,-99.9,30.19,NE,34,11.0,14.0,-999,-99.99,,,-99.99,,2016-02-14 10:54:00,
2016-02-14 05:57:00,52.0,-99.9,30.20,NNE,29,11.0,12.0,-999,-99.99,,,-99.99,,2016-02-14 10:57:00,
2016-02-14 06:04:00,52.0,-99.9,30.20,NNE,21,9.0,13.0,-999,-99.99,,,-99.99,,2016-02-14 11:04:00,
2016-02-14 06:14:00,52.0,-99.9,30.19,NE,34,11.0,13.0,-999,-99.99,,,-99.99,,2016-02-14 11:14:00,
2016-02-14 06:34:00,52.0,-99.9,30.19,NE,34,11.0,14.0,-999,-99.99,,,-99.99,,2016-02-14 11:34:00,
2016-02-14 06:47:00,52.0,-99.9,30.19,NE,34,11.0,14.0,-999,-99.99,,,-99.99,,2016-02-14 11:47:00,
2016-02-14 07:04:00,52.0,-99.9,30.21,NE,34,11.0,15.0,-999,-99.99,,,-99.99,,2016-02-14 12:04:00,
2016-02-14 07:14:00,53.0,-99.9,30.21,NE,40,9.0,11.0,-999,-99.99,,,-99.99,,2016-02-14 12:14:00,
2016-02-14 07:37:00,52.0,-99.9,30.22,NE,35,9.0,12.0,-999,-99.99,,,-99.99,,2016-02-14 12:37:00,